Location: Amsterdam
(30.7274°N, 84.4357°W)
Time: 05:29:46
(UTC+00:00)

Courier 1B Rocket - Pass Details

Date: 07 February 2026
Orbit: 920 x 1201 km, 28.2° (Epoch: 5 March)

Event Time Altitude Azimuth Distance (km) Brightness Sun altitude
Rises 07:31:13 0° 268° (W) 3,946 - -62.5°
Reaches altitude 10° 07:33:57 10° 267° (W) 3,022 - -62.0°
Maximum altitude 07:41:29 74° 184° (S) 1,222 - -60.5°
Drops below altitude 10° 07:49:17 10° 101° (E) 3,127 - -59.0°
Exits shadow 07:50:51 - 100° (E) 3,647 8.3 -58.7°
Sets 07:52:09 0° 99° (E) 4,090 8.6 -58.4°
